Theta_e
334 334 335 334 330 327 325 323 321 320 319 318 317 318 319 319 318 318 315 315 314 314 313 312 310 309 297
320 327 328 330 327 325 322 321 320 316 315 316 316 318 317 317 316 314 312 311 311 311 309 308 306 304 296
312 316 322 324 323 322 319 318 313 302 303 305 312 316 314 313 313 311 308 306 305 305 306 305 302 295 295
309 310 310 311 309 307 305 304 298 297 298 302 308 311 309 309 309 307 305 302 297 293 294 298 293 293 293
304 304 303 302 300 299 298 298 295 296 298 296 295 293 292 296 291 293 292 291 291 291 292 291 291 291 290
299 302 300 299 296 296 295 296 294 294 292 292 291 290 289 289 288 289 289 290 290 291 290 290 289 289 289
297 299 297 296 297 295 294 295 294 292 291 291 290 289 288 288 288 287 288 288 288 289 289 289 288 289 289
297 297 298 296 295 294 292 293 293 292 290 290 289 288 287 287 287 287 287 287 287 288 288 288 288 288 289
296 296 295 295 295 294 292 292 292 291 289 288 288 287 286 286 287 286 286 286 285 287 286 287 288 288 288
296 295 295 294 294 293 291 290 291 290 289 288 287 286 286 286 285 285 285 284 284 284 284 285 286 287 288
296 295 294 293 293 293 289 289 289 289 288 288 286 286 286 285 285 285 284 283 283 284 285 285 285 285 286
294 292 291 291 290 290 290 288 288 288 288 286 285 285 285 284 284 284 283 284 283 283 285 284 284 285 285
292 290 291 291 290 289 288 288 288 287 287 285 285 284 284 284 283 283 283 282 283 282 281 282 283 285 284
294 294 291 292 287 289 288 287 287 286 286 285 284 284 283 283 283 283 283 282 282 282 280 280 279 281 284
293 290 285 284 283 283 284 286 286 286 285 285 284 284 283 283 282 282 282 282 281 281 281 280 277 277 279
292 290 288 289 288 288 289 287 285 285 284 284 284 283 283 282 281 281 282 281 281 280 281 283 281 280 278
Wind_Speed
11 13 15 16 16 15 14 13 12 12 11 11 10 10 10 10 10 11 11 11 11 11 12 12 13 13 7
6 10 11 14 14 14 14 13 12 11 11 11 8 10 11 10 11 11 11 11 11 11 12 12 12 12 6
5 5 8 11 12 12 11 11 9 4 6 6 7 11 11 11 10 11 10 10 10 10 11 11 10 3 5
4 5 5 5 4 5 5 6 4 5 4 4 7 10 11 11 10 10 10 9 7 4 4 7 3 5 4
5 4 3 3 3 4 6 6 5 4 3 3 3 3 4 7 3 5 4 3 4 3 3 3 4 4 3
5 5 5 5 4 4 5 7 5 3 4 4 3 4 4 3 5 4 2 3 4 4 4 4 4 4 2
10 6 6 6 6 6 5 6 5 5 5 4 4 3 3 3 4 4 3 3 3 4 4 4 4 4 5
12 11 9 7 7 6 5 6 7 5 5 4 4 4 4 3 3 4 3 3 3 3 3 4 5 4 5
16 12 9 9 8 7 7 7 7 6 6 6 5 4 4 4 5 4 3 2 2 2 4 4 4 5 5
16 12 9 8 8 7 6 6 7 7 8 6 5 5 5 4 4 4 3 2 2 3 3 4 4 3 4
15 11 10 10 9 7 6 6 8 8 8 7 5 5 5 4 4 3 2 2 2 3 4 4 4 4 4
11 8 5 6 5 5 7 7 9 7 8 7 5 6 5 4 4 2 3 2 2 1 2 3 3 3 2
12 11 8 11 8 6 6 10 10 8 8 7 5 5 5 5 5 5 3 3 3 3 2 3 3 5 4
13 11 5 9 3 4 5 7 9 9 9 8 8 7 7 5 6 5 4 3 2 4 3 1 4 4 3
14 9 5 6 4 3 4 6 8 10 9 8 8 7 6 5 6 5 5 6 4 1 3 3 2 2 3
17 15 14 12 10 9 9 7 8 9 9 8 8 7 6 4 5 5 5 4 5 5 2 3 4 3 2
Wind_Direction
181 173 179 168 170 166 164 160 155 143 137 130 120 120 112 107 100 90 80 77 72 62 55 47 43 38 38
174 173 175 168 170 167 165 155 144 143 142 134 118 124 111 103 96 87 77 71 68 64 54 45 40 31 27
173 180 170 163 167 163 153 143 126 122 132 126 137 121 116 107 99 89 80 72 66 59 54 46 42 29 25
166 170 156 151 147 141 140 128 132 141 139 126 108 114 108 106 105 99 90 77 64 46 37 38 31 23 23
176 162 161 149 148 156 159 156 155 147 138 119 107 120 123 110 90 87 77 74 80 70 48 37 33 32 16
164 178 169 164 167 173 178 167 153 152 158 154 154 148 134 137 122 114 104 98 77 73 66 47 27 27 18
181 174 173 181 182 183 177 174 158 162 167 160 167 158 147 134 131 131 111 86 61 46 37 31 21 18 6
190 186 186 181 180 177 178 182 171 165 166 162 167 170 155 150 137 126 126 101 65 52 25 14 2 8 9
191 186 184 184 178 184 184 179 173 168 167 166 165 171 176 159 135 126 109 91 60 22 18 358 360 5 2
190 184 182 180 181 184 178 170 172 172 168 165 167 185 171 151 145 126 124 88 65 32 345 342 347 8 13
185 178 179 176 182 180 166 174 177 174 173 168 172 179 160 157 153 150 92 120 53 2 331 336 346 3 19
172 160 147 166 173 164 181 182 177 181 170 165 168 172 161 150 155 151 140 89 115 352 327 348 0 32 66
171 171 180 191 184 184 182 178 179 175 172 168 165 162 165 170 175 158 126 112 31 7 29 10 3 37 72
181 185 172 171 163 174 167 175 179 172 170 169 171 177 176 159 165 165 140 116 81 8 104 94 16 345 14
174 144 91 89 68 107 180 188 186 177 175 172 174 173 174 172 176 165 154 144 143 17 37 134 107 215 323
169 169 169 180 181 194 190 185 179 175 176 169 168 169 177 183 176 168 163 153 131 149 86 54 52 107 159